Retour au catalogue

FENGYUN 1C DEB

ActifLEO
NORAD 31567·DEBRIS·🇨🇳 China

Lancé May 10, 1999 depuis Taiyuan Satellite Launch Center

Loading…

Prochains Passages (prochaines 24 heures)

TLE

FraisSource: Space-Track

Époque: Sep 14, 2026, 02:42 UTC

1 31567U 99025BZJ 26257.11258214  .00004101  00000-0  26959-2 0  9992
2 31567 102.3157 219.4220 0182177   5.3000 355.0023 13.95009976712464

Suivez FENGYUN 1C DEB en temps réel avec AllMySat

Download on the App Store